• In Portugal
  • List of Countries
  • For 7 days
  • Water Temperature
  • Satellite Maps
  • Weather Map
  • Weather Widgets
  • user-avatar
    Login

    Hourly Weather Mahilyow

    Today, 20 October, Saturday

    Time Temperature Precipitation Wind Pressure Humidity
    00:00 +9°C° 0 mm 3 mps 751 mmHg 91%
    01:00 +8°C° 0 mm 2 mps 751 mmHg 92%
    02:00 +8°C° 0 mm 2 mps 751 mmHg 92%
    03:00 +7°C° 0 mm 2 mps 751 mmHg 92%
    04:00 +7°C° 0 mm 2 mps 751 mmHg 92%
    05:00 +6°C° 0 mm 2 mps 751 mmHg 92%
    06:00 +7°C° 0 mm 2 mps 752 mmHg 89%
    07:00 +7°C° 0 mm 2 mps 752 mmHg 86%
    08:00 +7°C° 0 mm 2 mps 752 mmHg 84%
    09:00 +8°C° 0 mm 2 mps 752 mmHg 76%
    10:00 +10°C° 0 mm 2 mps 752 mmHg 68%
    11:00 +12°C° 0 mm 2 mps 752 mmHg 60%
    12:00 +13°C° 0 mm 2 mps 752 mmHg 56%
    13:00 +13°C° 0 mm 2 mps 752 mmHg 53%
    14:00 +14°C° 0 mm 2 mps 752 mmHg 49%
    15:00 +12°C° 0 mm 2 mps 752 mmHg 54%
    16:00 +10°C° 0 mm 2 mps 752 mmHg 59%
    17:00 +9°C° 0 mm 2 mps 752 mmHg 63%
    18:00 +8°C° 0 mm 2 mps 752 mmHg 66%
    19:00 +7°C° 0 mm 2 mps 752 mmHg 69%
    20:00 +7°C° 0 mm 2 mps 752 mmHg 72%
    21:00 +6°C° 0 mm 2 mps 752 mmHg 74%
    22:00 +6°C° 0 mm 2 mps 752 mmHg 76%
    23:00 +5°C° 0 mm 2 mps 752 mmHg 78%

    Tomorrow, 21 October, Sunday

    Time Temperature Precipitation Wind Pressure Humidity
    00:00 +5°C° 0 mm 2 mps 753 mmHg 79%
    01:00 +4°C° 0 mm 2 mps 753 mmHg 80%
    02:00 +4°C° 0 mm 2 mps 753 mmHg 82%
    03:00 +4°C° 0 mm 2 mps 753 mmHg 83%
    04:00 +4°C° 0 mm 2 mps 753 mmHg 85%
    05:00 +3°C° 0 mm 2 mps 753 mmHg 86%
    06:00 +4°C° 0 mm 2 mps 753 mmHg 85%
    07:00 +4°C° 0 mm 2 mps 754 mmHg 83%
    08:00 +4°C° 0 mm 2 mps 754 mmHg 82%
    09:00 +6°C° 0 mm 2 mps 754 mmHg 75%
    10:00 +8°C° 0 mm 2 mps 755 mmHg 68%
    11:00 +9°C° 0 mm 3 mps 755 mmHg 60%
    12:00 +10°C° 0 mm 3 mps 755 mmHg 58%
    13:00 +10°C° 0 mm 3 mps 755 mmHg 55%
    14:00 +12°C° 0 mm 2 mps 755 mmHg 53%
    15:00 +9°C° 0 mm 2 mps 755 mmHg 59%
    16:00 +8°C° 0 mm 2 mps 755 mmHg 65%
    17:00 +7°C° 0 mm 2 mps 755 mmHg 71%
    18:00 +6°C° 0 mm 2 mps 755 mmHg 74%
    19:00 +6°C° 0 mm 2 mps 755 mmHg 78%
    20:00 +5°C° 0 mm 2 mps 756 mmHg 81%
    21:00 +4°C° 0 mm 2 mps 756 mmHg 83%
    22:00 +4°C° 0 mm 2 mps 756 mmHg 85%
    23:00 +5°C° 0 mm 1 mps 756 mmHg 87%

    Day after tomorrow, 22 October, Monday

    Time Temperature Precipitation Wind Pressure Humidity
    00:00 +4°C° 0 mm 1 mps 756 mmHg 88%
    01:00 +4°C° 0 mm 1 mps 756 mmHg 89%
    02:00 +4°C° 0 mm 1 mps 756 mmHg 90%
    03:00 +4°C° 0 mm 1 mps 755 mmHg 91%
    04:00 +3°C° 0 mm 1 mps 755 mmHg 91%
    05:00 +3°C° 0 mm 1 mps 755 mmHg 91%
    06:00 +4°C° 0 mm 1 mps 755 mmHg 90%
    07:00 +4°C° 0 mm 1 mps 755 mmHg 88%
    08:00 +4°C° 0 mm 1 mps 755 mmHg 87%
    09:00 +6°C° 0 mm 1 mps 755 mmHg 79%
    10:00 +8°C° 0 mm 1 mps 755 mmHg 70%
    11:00 +10°C° 0 mm 1 mps 755 mmHg 62%
    12:00 +10°C° 0 mm 1 mps 754 mmHg 59%
    13:00 +11°C° 0 mm 1 mps 753 mmHg 55%
    14:00 +12°C° 0 mm 1 mps 753 mmHg 52%
    15:00 +10°C° 0 mm 1 mps 753 mmHg 57%
    16:00 +9°C° 0 mm 1 mps 752 mmHg 62%
    17:00 +7°C° 0 mm 1 mps 752 mmHg 67%
    18:00 +7°C° 0 mm 1 mps 752 mmHg 69%
    19:00 +6°C° 0 mm 1 mps 751 mmHg 71%
    20:00 +6°C° 0 mm 1 mps 751 mmHg 74%
    21:00 +5°C° 0 mm 1 mps 751 mmHg 75%
    22:00 +5°C° 0 mm 1 mps 750 mmHg 77%
    23:00 +5°C° 0 mm 1 mps 750 mmHg 78%

    23 October, Tuesday

    Time Temperature Precipitation Wind Pressure Humidity
    00:00 +4°C° 0 mm 1 mps 750 mmHg 80%
    01:00 +4°C° 0 mm 1 mps 749 mmHg 81%
    02:00 +3°C° 0 mm 2 mps 749 mmHg 83%
    03:00 +3°C° 0 mm 2 mps 748 mmHg 84%
    04:00 +2°C° 0 mm 2 mps 748 mmHg 86%
    05:00 +2°C° 0 mm 2 mps 747 mmHg 88%
    06:00 +2°C° 0 mm 2 mps 747 mmHg 88%
    07:00 +3°C° 0 mm 2 mps 747 mmHg 87%
    08:00 +3°C° 0 mm 2 mps 747 mmHg 87%
    09:00 +4°C° 0 mm 3 mps 746 mmHg 83%
    10:00 +5°C° 0 mm 3 mps 746 mmHg 78%
    11:00 +8°C° 0 mm 3 mps 746 mmHg 74%
    12:00 +7°C° 0.1 mm 3 mps 746 mmHg 76%
    13:00 +7°C° 0.1 mm 3 mps 745 mmHg 79%
    14:00 +6°C° 0.1 mm 4 mps 745 mmHg 81%
    15:00 +5°C° 0.1 mm 3 mps 744 mmHg 83%
    16:00 +5°C° 0.1 mm 3 mps 744 mmHg 85%
    17:00 +5°C° 0.1 mm 2 mps 744 mmHg 88%
    18:00 +4°C° 0 mm 2 mps 743 mmHg 89%
    19:00 +4°C° 0 mm 2 mps 743 mmHg 90%
    20:00 +2°C° 0 mm 3 mps 742 mmHg 91%
    21:00 +2°C° 0 mm 3 mps 741 mmHg 88%
    22:00 +1°C° 0 mm 4 mps 740 mmHg 85%
    23:00 +1°C° 0 mm 4 mps 739 mmHg 81%

    24 October, Wednesday

    Time Temperature Precipitation Wind Pressure Humidity
    00:00 +1°C° 0 mm 5 mps 738 mmHg 79%
    01:00 +2°C° 0 mm 6 mps 736 mmHg 76%
    02:00 +2°C° 0 mm 6 mps 735 mmHg 73%
    03:00 +2°C° 0.5 mm 7 mps 733 mmHg 74%
    04:00 +1°C° 0.5 mm 8 mps 731 mmHg 75%
    05:00 +2°C° 0.5 mm 8 mps 730 mmHg 75%
    06:00 +2°C° 0.7 mm 8 mps 728 mmHg 77%
    07:00 +2°C° 0.7 mm 8 mps 727 mmHg 79%
    08:00 +2°C° 0.7 mm 9 mps 726 mmHg 81%
    09:00 +4°C° 0.5 mm 8 mps 725 mmHg 82%
    10:00 +4°C° 0.5 mm 8 mps 724 mmHg 83%
    11:00 +5°C° 0.5 mm 8 mps 723 mmHg 84%
    12:00 +4°C° 0.8 mm 8 mps 724 mmHg 81%
    13:00 +4°C° 0.8 mm 8 mps 724 mmHg 77%
    14:00 +4°C° 0.8 mm 8 mps 724 mmHg 74%
    15:00 +2°C° 0.1 mm 8 mps 725 mmHg 72%
    16:00 +3°C° 0.1 mm 7 mps 726 mmHg 70%
    17:00 +2°C° 0.1 mm 6 mps 726 mmHg 67%
    18:00 +2°C° 0 mm 6 mps 727 mmHg 68%
    19:00 +2°C° 0 mm 6 mps 727 mmHg 69%
    20:00 +1°C° 0 mm 6 mps 727 mmHg 70%
    21:00 +1°C° 0.1 mm 6 mps 727 mmHg 70%
    22:00 +1°C° 0.1 mm 6 mps 728 mmHg 70%
    23:00 +1°C° 0.1 mm 6 mps 728 mmHg 70%

    25 October, Thursday

    Time Temperature Precipitation Wind Pressure Humidity
    00:00 +1°C° 0.5 mm 6 mps 728 mmHg 73%
    01:00 0°C° 0.5 mm 7 mps 728 mmHg 76%
    02:00 0°C° 0.5 mm 7 mps 728 mmHg 79%
    03:00 0°C° 0.4 mm 7 mps 729 mmHg 79%
    04:00 -1°C° 0.4 mm 7 mps 729 mmHg 78%
    05:00 -1°C° 0.4 mm 7 mps 730 mmHg 78%
    06:00 0°C° 0 mm 7 mps 731 mmHg 78%
    07:00 0°C° 0 mm 7 mps 731 mmHg 78%
    08:00 0°C° 0 mm 7 mps 732 mmHg 78%
    09:00 0°C° 0 mm 7 mps 732 mmHg 76%
    10:00 +2°C° 0 mm 7 mps 733 mmHg 75%
    11:00 +3°C° 0 mm 6 mps 733 mmHg 73%
    12:00 +3°C° 0 mm 6 mps 733 mmHg 71%
    13:00 +3°C° 0 mm 6 mps 733 mmHg 70%
    14:00 +3°C° 0 mm 5 mps 733 mmHg 68%
    15:00 +4°C° 0 mm 4 mps 733 mmHg 70%
    16:00 +3°C° 0 mm 4 mps 733 mmHg 72%
    17:00 +3°C° 0 mm 3 mps 733 mmHg 74%
    18:00 +2°C° 0 mm 3 mps 732 mmHg 78%
    19:00 +1°C° 0 mm 4 mps 732 mmHg 83%
    20:00 +1°C° 0 mm 4 mps 731 mmHg 87%
    21:00 +1°C° 0.3 mm 4 mps 730 mmHg 88%
    22:00 +1°C° 0.3 mm 5 mps 730 mmHg 88%
    23:00 +1°C° 0.3 mm 5 mps 729 mmHg 89%
    Show more